EW7517 Weather Reports


time (UTC)temp
C
wind
direction
speed
KPH
gust
KPH
rain 1hr
cm
rain 24hr
cm
rain mn
cm
humidity
%
barometer
mb
20260507062418 13 315 6.4 8.0 0.00 0.00 0.00 75 1021.1
20260507061907 13 315 1.6 8.0 0.00 0.00 0.00 74 1021.1
20260507061357 13 315 3.2 8.0 0.00 0.00 0.00 74 1021.0
20260507060846 13 315 3.2 12.9 0.00 0.00 0.00 74 1021.0
20260507060336 13 315 4.8 12.9 0.00 0.00 0.00 74 1021.1
20260507055828 13 0 3.2 12.9 0.00 0.00 0.00 74 1021.0
20260507055316 13 0 4.8 9.7 0.00 0.00 0.00 74 1020.8
20260507054806 13 0 4.8 9.7 0.00 0.00 0.00 74 1020.9
20260507054517 13 315 1.6 12.9 0.00 0.00 0.00 75 1021.0
20260507053745 13 315 4.8 12.9 0.00 0.00 0.00 74 1021.0
20260507053236 13 0 4.8 12.9 0.00 0.00 0.00 74 1020.9
20260507052725 13 315 3.2 12.9 0.00 0.00 0.00 74 1021.0
20260507052436 13 0 3.2 12.9 0.00 0.00 0.00 74 1021.0
20260507051704 13 0 3.2 12.9 0.00 0.00 0.00 73 1020.7
20260507051155 13 315 3.2 19.3 0.00 0.00 0.00 73 1020.8
20260507050646 13 315 6.4 22.5 0.00 0.00 0.00 73 1020.8
20260507050134 13 293 8.0 22.5 0.00 0.00 0.00 73 1021.0
20260507045623 13 315 3.2 9.7 0.00 0.00 0.00 73 1021.0
20260507045331 13 0 3.2 16.1 0.00 0.00 0.00 72 1020.8
20260507044603 13 0 6.4 16.1 0.00 0.00 0.00 72 1020.9
20260507044055 13 0 3.2 16.1 0.00 0.00 0.00 72 1020.9
20260507043544 14 315 4.8 20.9 0.00 0.00 0.00 72 1020.9
20260507043033 14 0 4.8 20.9 0.00 0.00 0.00 71 1020.8
20260507042523 14 0 6.4 17.7 0.00 0.00 0.00 71 1020.7
20260507042014 14 338 4.8 12.9 0.00 0.00 0.00 71 1020.8
20260507041504 14 338 6.4 16.1 0.00 0.00 0.00 71 1020.6
20260507040954 14 315 3.2 17.7 0.00 0.00 0.00 71 1020.7
20260507040442 14 315 6.4 17.7 0.00 0.00 0.00 71 1020.6
20260507035932 15 315 8.0 17.7 0.00 0.00 0.00 71 1020.6
20260507035423 15 0 6.4 17.7 0.00 0.00 0.00 71 1020.4
20260507034914 15 315 6.4 16.1 0.00 0.00 0.00 70 1020.4
20260507034402 15 270 6.4 17.7 0.00 0.00 0.00 70 1020.4
20260507033852 15 315 3.2 17.7 0.00 0.00 0.00 70 1020.2
20260507033612 15 0 9.7 17.7 0.00 0.00 0.00 70 1020.2
20260507032832 15 0 6.4 14.5 0.00 0.00 0.00 70 1020.1
20260507032539 15 0 6.4 14.5 0.00 0.00 0.00 70 1020.2
20260507031812 15 0 8.0 14.5 0.00 0.00 0.00 70 1019.9
20260507031301 15 315 4.8 14.5 0.00 0.00 0.00 70 1020.0
20260507030751 15 315 6.4 14.5 0.00 0.00 0.00 70 1019.8
20260507030443 16 338 1.6 12.9 0.00 0.00 0.00 68 1019.9
20260507030322 16 315 6.4 12.9 0.00 0.00 0.00 69 1019.7
20260507025444 16 0 4.8 12.9 0.00 0.00 0.00 68 1019.6
20260507024711 16 315 6.4 12.9 0.00 0.00 0.00 68 1019.6
20260507024201 16 315 3.2 12.9 0.00 0.00 0.00 68 1019.4
20260507023649 16 0 6.4 12.9 0.00 0.00 0.00 68 1019.5
20260507023142 16 315 3.2 16.1 0.00 0.00 0.00 68 1019.7
20260507022630 16 315 9.7 16.1 0.00 0.00 0.00 68 1019.5
20260507022343 16 315 3.2 12.9 0.00 0.00 0.00 67 1019.6
20260507021835 16 0 6.4 12.9 0.00 0.00 0.00 67 1019.6
20260507021059 16 0 1.6 12.9 0.00 0.00 0.00 67 1019.7
20260507020550 16 0 6.4 16.1 0.00 0.00 0.00 66 1019.6
20260507020039 17 0 8.0 16.1 0.00 0.00 0.00 64 1019.7
20260507015529 17 338 6.4 12.9 0.00 0.00 0.00 64 1019.7
20260507015018 17 315 4.8 12.9 0.00 0.00 0.00 63 1019.7
20260507014509 17 270 4.8 14.5 0.00 0.00 0.00 63 1019.7
20260507013959 17 315 8.0 17.7 0.00 0.00 0.00 63 1019.7
20260507013449 17 315 6.4 17.7 0.00 0.00 0.00 63 1019.7
20260507012938 17 270 6.4 17.7 0.00 0.00 0.00 63 1019.7
20260507012651 18 315 6.4 17.7 0.00 0.00 0.00 62 1019.6
20260507011918 18 315 6.4 14.5 0.00 0.00 0.00 63 1019.5
20260507011409 18 315 4.8 14.5 0.00 0.00 0.00 63 1019.6
20260507010857 18 315 4.8 17.7 0.00 0.00 0.00 62 1019.6
20260507010610 18 315 8.0 19.3 0.00 0.00 0.00 62 1019.7
20260507010317 18 315 8.0 19.3 0.00 0.00 0.00 61 1019.6
20260507005328 18 270 3.2 14.5 0.00 0.00 0.00 60 1019.8
20260507004818 19 315 3.2 12.9 0.00 0.00 0.00 59 1019.5
20260507004754 19 0 6.4 12.9 0.00 0.00 0.00 60 1019.6
20260507003757 19 338 4.8 16.1 0.00 0.00 0.00 61 1019.7
20260507003246 19 293 3.2 16.1 0.00 0.00 0.00 61 1019.5
20260507002737 19 0 6.4 14.5 0.00 0.00 0.00 62 1019.4
20260507002450 19 0 6.4 14.5 0.00 0.00 0.00 62 1019.4
20260507001716 19 315 4.8 12.9 0.00 0.00 0.00 62 1019.4
20260507001206 20 315 4.8 12.9 0.00 0.00 0.00 60 1019.3
20260507000657 20 315 3.2 12.9 0.00 0.00 0.00 60 1019.3
20260507000145 20 315 3.2 9.7 0.00 0.00 0.00 59 1019.3
20260506235904 20 0 4.8 8.0 0.00 0.00 0.00 59 1019.3
20260506235125 20 0 3.2 12.9 0.00 0.00 0.00 59 1019.3
20260506234615 20 0 1.6 12.9 0.00 0.00 0.00 58 1019.4
20260506234105 20 315 0.0 9.7 0.00 0.00 0.00 57 1019.3
20260506233817 20 0 4.8 9.7 0.00 0.00 0.00 56 1019.3
20260506233047 21 315 6.4 9.7 0.00 0.00 0.00 54 1019.2
20260506232535 21 315 1.6 3.2 0.00 0.00 0.00 53 1019.4
20260506232025 21 315 0.0 3.2 0.00 0.00 0.00 54 1019.4
20260506231514 21 315 0.0 4.8 0.00 0.00 0.00 55 1019.4
20260506231006 21 315 3.2 4.8 0.00 0.00 0.00 56 1019.4
20260506230455 20 315 0.0 6.4 0.00 0.00 0.00 56 1019.5
20260506225944 20 315 1.6 6.4 0.00 0.00 0.00 55 1019.7
20260506225433 21 315 1.6 4.8 0.00 0.00 0.00 54 1019.6
20260506224923 21 315 3.2 4.8 0.00 0.00 0.00 56 1019.7
20260506224643 20 315 3.2 4.8 0.00 0.00 0.00 57 1019.7
20260506223905 20 315 0.0 4.8 0.00 0.00 0.00 57 1019.9
20260506223354 20 315 3.2 6.4 0.00 0.00 0.00 58 1020.1
20260506222843 20 293 3.2 6.4 0.00 0.00 0.00 58 1019.9
20260506222332 20 293 3.2 6.4 0.00 0.00 0.00 59 1020.0
20260506221823 20 270 3.2 6.4 0.00 0.00 0.00 58 1019.9
20260506221314 20 135 0.0 6.4 0.00 0.00 0.00 58 1020.1
20260506220803 20 135 1.6 6.4 0.00 0.00 0.00 58 1020.1
20260506220252 20 135 1.6 11.3 0.00 0.00 0.00 58 1020.2
20260506215742 20 135 3.2 11.3 0.00 0.00 0.00 57 1020.1
20260506215456 20 45 6.4 8.0 0.00 0.00 0.00 56 1020.1
20260506214723 20 45 3.2 6.4 0.00 0.00 0.00 56 1020.0
20260506214211 20 0 1.6 6.4 0.00 0.00 0.00 57 1020.1
20260506213703 20 0 0.0 6.4 0.00 0.00 0.00 58 1020.0
20260506213151 20 0 4.8 6.4 0.00 0.00 0.00 58 1020.2
20260506212641 20 0 1.6 4.8 0.00 0.00 0.00 60 1020.3
20260506212132 20 0 3.2 4.8 0.00 0.00 0.00 60 1020.2
20260506211621 20 315 0.0 4.8 0.00 0.00 0.00 61 1020.2
20260506211336 20 338 0.0 6.4 0.00 0.00 0.00 60 1020.6
20260506210601 19 0 1.6 9.7 0.00 0.00 0.00 62 1020.5
20260506210051 19 0 4.8 9.7 0.00 0.00 0.00 61 1020.5
20260506205541 19 0 3.2 8.0 0.00 0.00 0.00 62 1020.4
20260506205030 19 0 3.2 4.8 0.00 0.00 0.00 63 1020.4
20260506204521 18 0 3.2 6.4 0.00 0.00 0.00 65 1020.6
20260506204010 18 315 3.2 6.4 0.00 0.00 0.00 65 1020.6
20260506203500 18 0 3.2 4.8 0.00 0.00 0.00 65 1020.6
20260506202952 18 0 3.2 6.4 0.00 0.00 0.00 65 1020.4
20260506202439 18 0 1.6 6.4 0.00 0.00 0.00 65 1020.6
20260506202155 18 0 3.2 6.4 0.00 0.00 0.00 66 1020.6
20260506201640 17 0 1.6 6.4 0.00 0.00 0.00 65 1020.3
20260506200909 18 0 4.8 6.4 0.00 0.00 0.00 65 1020.6
20260506200400 18 0 3.2 6.4 0.00 0.00 0.00 66 1020.6
20260506200330 17 0 0.0 6.4 0.00 0.00 0.00 66 1020.6
20260506195339 17 0 3.2 6.4 0.00 0.00 0.00 66 1020.6
20260506194828 18 315 1.6 4.8 0.00 0.00 0.00 66 1020.6
20260506194318 18 315 0.0 3.2 0.00 0.00 0.00 67 1021.0
20260506193810 18 315 1.6 4.8 0.00 0.00 0.00 68 1020.8
20260506193258 17 315 0.0 4.8 0.00 0.00 0.00 68 1020.9
20260506192747 17 0 0.0 4.8 0.00 0.00 0.00 69 1021.0
20260506192238 17 0 0.0 6.4 0.00 0.00 0.00 68 1020.8
20260506191727 17 315 3.2 6.4 0.00 0.00 0.00 68 1020.8
20260506191219 17 315 0.0 4.8 0.00 0.00 0.00 68 1020.7
20260506190708 17 315 0.0 4.8 0.00 0.00 0.00 68 1020.7
20260506190158 17 315 3.2 4.8 0.00 0.00 0.00 69 1020.9
20260506185648 17 315 0.0 6.4 0.00 0.00 0.00 69 1020.9
20260506185136 17 315 3.2 6.4 0.00 0.00 0.00 70 1020.8
20260506184628 17 315 3.2 4.8 0.00 0.00 0.00 71 1020.8
20260506184117 16 315 3.2 6.4 0.00 0.00 0.00 72 1020.8
20260506183606 16 0 3.2 6.4 0.00 0.00 0.00 72 1020.7
20260506183056 16 0 0.0 6.4 0.00 0.00 0.00 72 1020.6
20260506182812 16 0 3.2 6.4 0.00 0.00 0.00 72 1020.8
20260506182037 16 0 0.0 6.4 0.00 0.00 0.00 71 1020.9
20260506181526 16 0 3.2 6.4 0.00 0.00 0.00 71 1020.8
20260506181016 16 0 4.8 6.4 0.00 0.00 0.00 72 1020.8
20260506180507 16 0 0.0 1.6 0.00 0.00 0.00 73 1020.8
20260506175956 16 0 0.0 3.2 0.00 0.00 0.00 73 1020.7
20260506175447 16 0 0.0 4.8 0.00 0.00 0.00 73 1020.7
20260506174936 16 0 0.0 4.8 0.00 0.00 0.00 72 1020.9
20260506174425 16 315 0.0 3.2 0.00 0.00 0.00 73 1020.6
20260506173915 16 315 0.0 6.4 0.00 0.00 0.00 72 1020.8
20260506173405 16 315 0.0 6.4 0.00 0.00 0.00 73 1020.6
20260506172856 16 0 3.2 3.2 0.00 0.00 0.00 72 1020.6
20260506172345 16 0 0.0 3.2 0.00 0.00 0.00 73 1020.5
20260506171839 15 0 0.0 4.8 0.00 0.00 0.00 72 1020.4
20260506171324 16 0 3.2 4.8 0.00 0.00 0.00 73 1020.4
20260506171043 15 0 1.6 4.8 0.00 0.00 0.00 73 1020.5
20260506170306 15 315 0.0 4.8 0.00 0.00 0.00 73 1020.4
20260506165753 15 0 1.6 3.2 0.00 0.00 0.00 74 1020.5
20260506165243 15 0 1.6 4.8 0.00 0.00 0.00 74 1020.7
20260506164735 15 0 3.2 4.8 0.00 0.00 0.00 74 1020.6
20260506164223 15 0 1.6 6.4 0.00 0.00 0.00 74 1020.4
20260506163714 15 315 3.2 6.4 0.00 0.00 0.00 74 1020.7
20260506163204 15 315 3.2 6.4 0.00 0.00 0.00 74 1020.5
20260506162654 15 0 1.6 4.8 0.00 0.00 0.00 74 1020.6
20260506162409 15 315 0.0 4.8 0.00 0.00 0.00 74 1020.3
20260506161633 15 0 0.0 3.2 0.00 0.00 0.00 74 1020.4
20260506161124 15 0 0.0 6.4 0.00 0.00 0.00 74 1020.4
20260506160612 15 315 3.2 6.4 0.00 0.00 0.00 74 1020.5
20260506160107 15 0 0.0 4.8 0.00 0.00 0.00 75 1020.2
20260506155553 15 0 1.6 4.8 0.00 0.00 0.00 76 1020.1
20260506155306 15 0 0.0 4.8 0.00 0.00 0.00 78 1020.2
20260506154533 15 0 0.0 4.8 0.00 0.00 0.00 80 1019.8
20260506154021 14 0 0.0 4.8 0.00 0.00 0.00 81 1019.9
20260506153511 13 0 3.2 6.4 0.00 0.00 0.00 81 1020.1
20260506153001 13 0 1.6 6.4 0.00 0.00 0.00 82 1020.3
20260506152451 13 0 1.6 6.4 0.00 0.00 0.00 83 1020.4
20260506152206 13 0 3.2 6.4 0.00 0.00 0.00 83 1020.5
20260506151431 13 315 3.2 6.4 0.00 0.00 0.00 83 1020.6
20260506150921 13 315 0.0 8.0 0.00 0.00 0.00 82 1020.6
20260506150411 13 0 3.2 8.0 0.00 0.00 0.00 82 1020.7
20260506150118 13 0 3.2 8.0 0.00 0.00 0.00 82 1020.7
20260506145351 13 315 3.2 8.0 0.00 0.00 0.00 82 1020.5
20260506144840 13 0 1.6 12.9 0.00 0.00 0.00 82 1020.3
20260506144815 13 0 4.8 12.9 0.00 0.00 0.00 82 1020.3
20260506143820 13 0 3.2 8.0 0.00 0.00 0.00 82 1020.3
20260506143534 13 315 4.8 8.0 0.00 0.00 0.00 82 1020.0
20260506142802 13 0 4.8 8.0 0.00 0.00 0.00 82 1020.1
20260506142249 13 0 3.2 4.8 0.00 0.00 0.00 83 1019.8
20260506142221 13 0 1.6 6.4 0.00 0.00 0.00 84 1019.9
20260506141230 13 0 1.6 6.4 0.00 0.00 0.00 84 1019.7
20260506140719 13 338 3.2 6.4 0.00 0.00 0.00 84 1019.7
20260506140210 13 0 1.6 6.4 0.00 0.00 0.00 84 1019.7
20260506135659 13 315 3.2 6.4 0.00 0.00 0.00 84 1019.6
20260506135149 13 338 3.2 4.8 0.00 0.00 0.00 84 1019.6
20260506134638 13 315 1.6 6.4 0.00 0.00 0.00 84 1019.4
20260506134347 13 315 3.2 6.4 0.00 0.00 0.00 84 1019.6
20260506133620 13 315 0.0 3.2 0.00 0.00 0.00 84 1019.5
20260506133108 13 315 1.6 4.8 0.00 0.00 0.00 84 1019.6
20260506132558 13 315 3.2 4.8 0.00 0.00 0.00 84 1019.6
20260506132049 13 0 1.6 3.2 0.00 0.00 0.00 84 1019.5
20260506131538 13 0 0.0 3.2 0.00 0.00 0.00 84 1019.4
20260506131029 13 0 0.0 1.6 0.00 0.00 0.00 84 1019.4
20260506130517 13 0 0.0 3.2 0.00 0.00 0.00 84 1019.3
20260506130007 13 0 0.0 3.2 0.00 0.00 0.00 84 1019.1
20260506125714 13 0 1.6 3.2 0.00 0.00 0.00 84 1019.2
20260506124946 13 0 0.0 1.6 0.00 0.00 0.00 84 1019.2
20260506124438 13 0 0.0 0.0 0.00 0.00 0.00 84 1019.0
20260506123927 13 0 0.0 1.6 0.00 0.00 0.00 84 1019.1
20260506123901 13 0 0.0 6.4 0.00 0.00 0.00 84 1019.1
20260506122906 13 0 0.0 6.4 0.00 0.00 0.00 84 1019.1
20260506122356 13 0 0.0 6.4 0.00 0.00 0.00 84 1019.3
20260506121847 13 0 1.6 9.7 0.00 0.00 0.00 83 1019.1
20260506121336 13 315 4.8 9.7 0.00 0.00 0.00 83 1019.0
20260506120826 13 0 3.2 8.0 0.00 0.00 0.00 83 1019.1
20260506120316 13 0 3.2 6.4 0.00 0.00 0.00 83 1019.1
20260506115805 13 0 3.2 9.7 0.00 0.00 0.00 83 1018.7
20260506115523 13 0 1.6 9.7 0.00 0.00 0.00 83 1018.9
20260506114745 13 0 3.2 9.7 0.00 0.00 0.00 83 1018.8
20260506114235 13 315 3.2 9.7 0.00 0.00 0.00 83 1018.7
20260506113952 13 315 0.0 8.0 0.00 0.00 0.00 83 1018.8
20260506113214 13 338 3.2 8.0 0.00 0.00 0.00 82 1018.8
20260506112706 13 0 3.2 8.0 0.00 0.00 0.00 81 1018.5
20260506112154 13 0 3.2 8.0 0.00 0.00 0.00 81 1018.6
20260506111644 13 315 6.4 12.9 0.00 0.00 0.00 81 1018.5
20260506111134 13 0 3.2 12.9 0.00 0.00 0.00 81 1018.6
20260506110624 13 0 3.2 8.0 0.00 0.00 0.00 81 1018.5
20260506110115 13 315 3.2 8.0 0.00 0.00 0.00 81 1018.4
20260506105604 13 0 3.2 6.4 0.00 0.00 0.00 81 1018.2
20260506105053 13 0 3.2 6.4 0.00 0.00 0.00 80 1018.3
20260506104543 13 315 3.2 6.4 0.00 0.00 0.00 80 1018.3
20260506104032 13 0 3.2 8.0 0.00 0.00 0.00 80 1018.3
20260506103745 13 338 3.2 9.7 0.00 0.00 0.00 80 1018.1
20260506103014 13 0 4.8 9.7 0.00 0.00 0.00 80 1017.9
20260506102502 13 315 0.0 6.4 0.00 0.00 0.00 80 1017.9
20260506101953 13 0 4.8 6.4 0.00 0.00 0.00 80 1017.9
20260506101442 14 0 3.2 3.2 0.00 0.00 0.00 79 1017.8
20260506100934 14 0 0.0 3.2 0.00 0.00 0.00 79 1017.5
20260506100648 14 0 0.0 6.4 0.00 0.00 0.00 79 1017.8
20260506100133 14 0 1.6 6.4 0.00 0.00 0.00 79 1017.8
20260506095402 14 315 1.6 6.4 0.00 0.00 0.00 79 1017.7
20260506094852 14 0 3.2 4.8 0.00 0.00 0.00 79 1017.6
20260506094342 14 0 0.0 6.4 0.00 0.00 0.00 79 1017.8
20260506093833 14 315 3.2 6.4 0.00 0.00 0.00 79 1017.6
20260506093320 14 315 0.0 6.4 0.00 0.00 0.00 79 1017.8
20260506092813 14 0 3.2 6.4 0.00 0.00 0.00 78 1017.6
20260506092301 14 0 3.2 6.4 0.00 0.00 0.00 78 1017.6
20260506091751 14 0 3.2 6.4 0.00 0.00 0.00 78 1017.5
20260506091241 14 0 1.6 4.8 0.00 0.00 0.00 78 1017.6
20260506090730 14 0 1.6 6.4 0.00 0.00 0.00 78 1017.6
20260506090220 14 0 3.2 6.4 0.00 0.00 0.00 78 1017.7
20260506085928 15 315 0.0 6.4 0.00 0.00 0.00 78 1017.6
20260506085201 15 338 3.2 6.4 0.00 0.00 0.00 78 1017.6
20260506084649 15 0 3.2 6.4 0.00 0.00 0.00 78 1017.4
20260506084402 15 338 3.2 6.4 0.00 0.00 0.00 77 1017.4
20260506083630 15 338 3.2 9.7 0.00 0.00 0.00 77 1017.5
20260506083119 15 315 3.2 9.7 0.00 0.00 0.00 77 1017.5
20260506082611 15 315 3.2 4.8 0.00 0.00 0.00 77 1017.5
20260506082059 15 315 1.6 4.8 0.00 0.00 0.00 76 1017.4
20260506081549 15 315 3.2 4.8 0.00 0.00 0.00 76 1017.5
20260506081039 15 0 3.2 6.4 0.00 0.00 0.00 77 1017.4
20260506080528 15 0 3.2 6.4 0.00 0.00 0.00 76 1017.3
20260506073429 15 0 3.2 6.4 0.00 0.00 0.00 77 1017.1
20260506072918 15 315 3.2 6.4 0.00 0.00 0.00 77 1017.3
20260506072629 15 338 3.2 6.4 0.00 0.00 0.00 77 1017.0
20260506071858 15 315 3.2 4.8 0.00 0.00 0.00 78 1017.0
20260506071347 15 315 0.0 3.2 0.00 0.00 0.00 78 1017.0
20260506070839 15 315 3.2 4.8 0.00 0.00 0.00 78 1017.0
20260506070327 15 315 0.0 4.8 0.00 0.00 0.00 79 1017.1